Location: Newark
(44.3681°N, 100.3364°W)
Time: 16:53:19
(UTC+00:00)

S-56A Canister/Altair - Pass Details

Date: 06 March 2020
Orbit: 634 x 2498 km, 38.9° (Epoch: 02 April)

Event Time Altitude Azimuth Distance (km) Brightness Sun altitude
Rises 12:07:05 0° 199° (SSW) 4,101 11.0 -11.9°
Reaches altitude 10° 12:10:11 10° 186° (S) 3,404 10.7 -11.3°
Maximum altitude 12:17:04 25° 135° (SE) 2,939 11.0 -10.1°
Drops below altitude 10° 12:26:07 10° 87° (E) 4,590 13.2 -8.5°
Sets 12:31:06 0° 76° (ENE) 5,851 13.9 -7.6°
